Weather History for KCMI - August, 2013

Change the Weather History Date:

Wednesday, August 21, 2013

  Actual Average Record
Temperature  
Mean Temperature 75 °F 72 °F  
Max Temperature 87 °F 83 °F 93 °F (2003)
Min Temperature 62 °F 61 °F 48 °F (2004)
Degree Days  
Heating Degree Days 0 0  
Month to date heating degree days 7 0  
Since 1 June heating degree days 28 19  
Since 1 July heating degree days 15 2  
Cooling Degree Days 10 7  
Month to date cooling degree days 125 164  
Year to date cooling degree days 726 761  
Since 1 June cooling degree days 594 669  
Growing Degree Days 24 (Base 50)    
Moisture  
Dew Point 66 °F    
Average Humidity 72    
Maximum Humidity 93    
Minimum Humidity 51    
Precipitation  
Precipitation 0.00 in 0.14 in 0.40 in (2010)
Month to date precipitation 0.08 2.21  
Year to date precipitation 24.04 25.88  
Sea Level Pressure  
Sea Level Pressure 30.10 in    
Wind  
Wind Speed 4 mph (SSW)    
Max Wind Speed 10 mph    
Max Gust Speed -    
Visibility 6 miles    
Events      
T = Trace of Precipitation, MM = Missing Value Source: NWS Daily Summary

Daily Weather History Graph

Daily Weather History Graph

Search for Another Location

Airport or City:

Trip Planner

Search our weather history database for the weather conditions in past years. The results will help you decide how hot, cold, wet, or windy it might be!

Date:

Astronomy

Aug. 21, 2013 Rise Set
Actual Time 6:10 AM CDT 7:40 PM CDT
Civil Twilight 5:42 AM CDT 8:09 PM CDT
Nautical Twilight 5:07 AM CDT 8:43 PM CDT
Astronomical Twilight 4:31 AM CDT 9:19 PM CDT
Moon 7:49 PM CDT (8/21) 6:50 AM CDT (8/21)
Length of Visible Light 14h 27m
Length of Day
13h 30m
Waxing Gibbous, 99% of the Moon is Illuminated
Aug 21
Waxing Gibbous
Aug 28
Last Quarter
Sep 5
New
Sep 12
First Quarter
Sep 19
Full

Hourly Weather History & Observations

Time (CDT) Temp. Heat Index Dew Point Humidity Pressure Visibility Wind Dir Wind Speed Gust Speed Precip Events Conditions
12:53 AM 66.0 °F - 64.0 °F 93% 30.09 in 5.0 mi South 3.5 mph - N/A   Clear
1:53 AM 66.0 °F - 64.0 °F 93% 30.09 in 5.0 mi SE 3.5 mph - N/A   Clear
2:53 AM 64.0 °F - 63.0 °F 96% 30.09 in 4.0 mi SE 4.6 mph - N/A   Clear
3:53 AM 64.0 °F - 63.0 °F 96% 30.09 in 4.0 mi Calm Calm - N/A   Clear
4:53 AM 63.0 °F - 61.0 °F 93% 30.09 in 3.0 mi Calm Calm - N/A   Clear
5:53 AM 62.1 °F - 61.0 °F 96% 30.10 in 2.5 mi Calm Calm - N/A   Clear
6:07 AM 62.6 °F - 60.8 °F 94% 30.12 in 3.0 mi Calm Calm - N/A   Clear
6:19 AM 62.6 °F - 60.8 °F 94% 30.12 in 1.8 mi Calm Calm - N/A   Clear
6:31 AM 62.6 °F - 60.8 °F 94% 30.13 in 2.5 mi Calm Calm - N/A   Clear
6:53 AM 64.9 °F - 63.0 °F 93% 30.11 in 2.0 mi South 3.5 mph - N/A   Clear
7:20 AM 68.0 °F - 66.2 °F 94% 30.13 in 3.0 mi South 3.5 mph - N/A   Clear
7:53 AM 71.1 °F - 68.0 °F 90% 30.13 in 5.0 mi SSW 3.5 mph - N/A   Clear
8:53 AM 75.9 °F - 69.1 °F 79% 30.14 in 10.0 mi WSW 4.6 mph - N/A   Clear
9:53 AM 80.1 °F 82.9 °F 69.1 °F 69% 30.13 in 10.0 mi SSW 3.5 mph - N/A   Clear
10:53 AM 82.9 °F 86.5 °F 69.1 °F 63% 30.13 in 10.0 mi SW 4.6 mph - N/A   Clear
11:53 AM 84.0 °F 87.8 °F 69.1 °F 61% 30.12 in 10.0 mi WSW 6.9 mph - N/A   Partly Cloudy
12:53 PM 84.9 °F 88.2 °F 68.0 °F 57% 30.11 in 10.0 mi South 4.6 mph - N/A   Partly Cloudy
1:53 PM 86.0 °F 88.2 °F 66.0 °F 51% 30.10 in 10.0 mi SW 9.2 mph - N/A   Partly Cloudy
2:53 PM 84.9 °F 87.1 °F 66.0 °F 53% 30.09 in 10.0 mi SW 8.1 mph - N/A   Scattered Clouds
3:53 PM 86.0 °F 89.4 °F 68.0 °F 55% 30.07 in 10.0 mi WSW 4.6 mph - N/A   Scattered Clouds
4:53 PM 86.0 °F 89.4 °F 68.0 °F 55% 30.06 in 10.0 mi SW 6.9 mph - N/A   Partly Cloudy
5:53 PM 84.0 °F 87.0 °F 68.0 °F 58% 30.05 in 10.0 mi SW 5.8 mph - N/A   Clear
6:53 PM 81.0 °F 84.1 °F 69.1 °F 67% 30.04 in 10.0 mi SSW 4.6 mph - N/A   Clear
7:53 PM 75.0 °F - 69.1 °F 82% 30.03 in 7.0 mi South 4.6 mph - N/A   Clear
8:53 PM 72.0 °F - 68.0 °F 87% 30.06 in 6.0 mi SSW 4.6 mph - N/A   Clear
9:53 PM 70.0 °F - 66.9 °F 90% 30.09 in 6.0 mi SSW 4.6 mph - N/A   Clear
10:53 PM 71.1 °F - 68.0 °F 90% 30.08 in 5.0 mi South 4.6 mph - N/A   Clear
11:53 PM 71.1 °F - 68.0 °F 90% 30.08 in 6.0 mi SSW 4.6 mph - N/A   Clear